Location: Fouquenies
(49.4624°N, 2.0492°E)
Time: 07:33:42
(UTC+00:00)

COSMO-SKYMED 1 - Visible Passes

Search period start: 24 September 2023 00:00
Search period end: 04 October 2023 00:00
Orbit: 622 x 623 km, 97.9° (Epoch: 23 September)

Date Brightness Start Highest point End Pass type
(mag) Time Alt. Az. Time Alt. Az. Time Alt. Az.
24 Sep 5.9 03:23:04 10° E 03:25:08 13° ENE 03:27:11 10° NNE visible
24 Sep 2.6 04:56:18 10° SSE 05:00:37 90° S 05:05:00 10° NNW visible
24 Sep 2.8 18:15:31 10° NNE 18:19:53 81° WNW 18:24:14 10° SSW visible
24 Sep 6.0 19:53:40 10° NNW 19:55:20 12° NW 19:56:59 10° WNW visible
25 Sep 5.5 03:39:56 10° ESE 03:42:55 18° ENE 03:45:55 10° NNE visible
25 Sep 3.5 18:33:36 10° N 18:37:52 54° WNW 18:42:06 10° SSW visible
26 Sep 5.0 03:57:11 10° ESE 04:00:46 26° ENE 04:04:21 10° N visible
26 Sep 4.3 18:51:47 10° N 18:55:48 37° WNW 18:59:47 10° SW visible
27 Sep 4.3 04:14:40 10° SE 04:18:39 36° ENE 04:22:39 10° N visible
27 Sep 5.0 19:10:04 10° N 19:13:41 26° WNW 19:17:17 10° WSW visible
28 Sep 3.5 04:32:21 10° SSE 04:36:34 53° ENE 04:40:50 10° N visible
28 Sep 5.5 19:28:29 10° NNW 19:31:31 19° WNW 19:34:32 10° WSW visible
29 Sep 6.0 03:17:32 10° ENE 03:19:06 12° NE 03:20:42 10° NE visible
29 Sep 2.7 04:50:12 10° SSE 04:54:33 79° ENE 04:58:55 10° NNW visible
29 Sep 2.6 18:09:25 10° NNE 18:13:47 88° ESE 18:18:09 10° SSW visible
29 Sep 5.8 19:47:11 10° NNW 19:49:19 14° WNW 19:51:26 10° W visible
30 Sep 5.6 03:34:10 10° E 03:36:53 17° ENE 03:39:37 10° NNE visible
30 Sep 2.5 05:08:14 10° S 05:12:33 70° WSW 05:16:55 10° NNW visible
30 Sep 3.2 18:27:27 10° N 18:31:47 62° WNW 18:36:03 10° SSW visible
01 Oct 5.1 03:51:18 10° ESE 03:54:42 23° ENE 03:58:07 10° N visible
01 Oct 4.0 18:45:36 10° N 18:49:43 42° WNW 18:53:48 10° SW visible
02 Oct 4.5 04:08:42 10° SE 04:12:33 32° ENE 04:16:26 10° N visible
02 Oct 4.7 19:03:50 10° N 19:07:36 29° WNW 19:11:21 10° SW visible
03 Oct 3.7 04:26:18 10° SE 04:30:28 46° ENE 04:34:39 10° N visible
03 Oct 5.3 19:22:11 10° NNW 19:25:26 21° WNW 19:28:41 10° WSW visible
